Home > Weather > Irvine > Past weeks

Flag for U.S.A. Weather for the Past 2 Weeks in Irvine, California, U.S.A.

Now
51 °F

Fog.


Feels Like: 51 °F
Forecast: 49 / 83 °F
Wind: 3 mph from Southeast

Location: John Wayne Airport-Orange County Airport

Current Time: Feb 14, 2016 at 7:48:22 AM

Latest Report: Feb 14, 2016 at 6:53 AM


Visibility: 0 mi

Pressure: 30.04 "Hg

Humidity: 96%

Dew point: 50 °F

Location of IrvineLocation

Historic Weather in Irvine — Graph

°F

Irvine Temperature Yesterday

Maximum temperature yesterday: 67 °F (at 11:53 AM)
Minimum temperature yesterday: 50 °F (at 6:53 AM)
Average temperature yesterday: 57 °F

High & Low Weather Summary for the Past Weeks

 TemperatureHumidityPressure
High88 °F (Feb 9, 12:53 PM)100% (Jan 31, 9:00 AM)30.36 "Hg (Jan 31, 9:00 AM)
Low37 °F (Feb 2, 4:53 AM)9% (Feb 7, 3:53 PM)29.64 "Hg (Jan 31, 1:53 PM)
Average61 °F47%30.11 "Hg
* Reported Jan 30 5:53 AM — Feb 14 5:53 AM, Irvine, Weather by CustomWeather, © 2016

Note: Actual official high and low records may vary slightly from our data, if they occured in-between our weather recording intervals... More about our weather records

Advertising

Irvine Weather History for the Previous 24 Hours

 ConditionsComfort  
Time TempWeatherWind HumidityBarometerVisibility
5:53 AM
Sun, Feb 14
54 °FFog.5 mph100%30.03 "Hg1 mi
4:53 AM52 °FFog.No wind100%30.03 "Hg0 mi
3:52 AM53 °FFog.No wind96%30.03 "Hg0 mi
2:53 AM53 °FFog.No wind93%30.04 "Hg3 mi
1:53 AM53 °FFog.No wind89%30.05 "Hg4 mi
12:53 AM53 °FFog.5 mph93%30.05 "Hg4 mi
11:53 PM
Sat, Feb 13
54 °FFog.No wind93%30.06 "Hg4 mi
10:53 PM56 °FFog.No wind93%30.06 "Hg4 mi
9:53 PM57 °FFog.No wind90%30.06 "Hg4 mi
8:53 PM57 °FFog.No wind90%30.04 "Hg4 mi
7:53 PM58 °FFog.No wind87%30.05 "Hg5 mi
6:53 PM59 °FClear.No wind81%30.04 "Hg5 mi
5:53 PM59 °FPassing clouds.5 mph78%30.02 "Hg5 mi
4:53 PM62 °FScattered clouds.3 mph65%30.03 "Hg5 mi
3:53 PM64 °FPassing clouds.5 mph63%30.03 "Hg7 mi
2:53 PM64 °FScattered clouds.7 mph63%30.04 "Hg10 mi
1:53 PM63 °FScattered clouds.10 mph68%30.05 "Hg10 mi
12:53 PM63 °FScattered clouds.13 mph68%30.05 "Hg8 mi
11:53 AM67 °FScattered clouds.5 mph61%30.05 "Hg6 mi
10:53 AM61 °FScattered clouds.6 mph78%30.09 "Hg4 mi
9:53 AM56 °FFog.6 mph90%30.10 "Hg3 mi
8:53 AM53 °FFog.No wind100%30.11 "Hg1 mi
8:03 AM52 °FFog.No wind100%30.10 "Hg0 mi
7:53 AM51 °FFog.No wind100%30.10 "Hg0 mi
Weather by CustomWeather, © 2016

See weather overviewHow to use our weather pages